TimeEST,TemperatureF,Dew PointF,Humidity,Sea Level PressureIn,VisibilityMPH,Wind Direction,Wind SpeedMPH,Gust SpeedMPH,PrecipitationIn,Events,Conditions,WindDirDegrees,DateUTC
12:53 AM,18.0,12.9,81,30.36,10.0,North,4.6,-,N/A,,Overcast,360,2012-12-26 05:53:00
1:53 AM,17.1,12.0,81,30.39,10.0,Calm,Calm,-,N/A,,Overcast,0,2012-12-26 06:53:00
2:43 AM,15.8,12.2,86,30.38,10.0,Calm,Calm,-,N/A,,Scattered Clouds,0,2012-12-26 07:43:00
2:53 AM,16.0,12.0,84,30.42,10.0,Calm,Calm,-,N/A,,Scattered Clouds,0,2012-12-26 07:53:00
3:05 AM,15.8,12.2,86,30.38,10.0,Calm,Calm,-,N/A,,Mostly Cloudy,0,2012-12-26 08:05:00
3:16 AM,14.0,10.4,86,30.38,10.0,Calm,Calm,-,N/A,,Scattered Clouds,0,2012-12-26 08:16:00
4:53 AM,16.0,12.9,88,30.38,10.0,East,5.8,-,N/A,,Overcast,80,2012-12-26 09:53:00
5:53 AM,17.1,12.0,81,30.38,10.0,North,3.5,-,N/A,,Overcast,10,2012-12-26 10:53:00
6:53 AM,18.0,12.9,81,30.38,10.0,North,3.5,-,N/A,,Overcast,360,2012-12-26 11:53:00
7:53 AM,18.0,12.9,81,30.37,10.0,Variable,4.6,-,N/A,,Overcast,0,2012-12-26 12:53:00
8:53 AM,19.0,12.9,77,30.37,10.0,NNW,4.6,-,N/A,,Overcast,330,2012-12-26 13:53:00
9:31 AM,19.4,12.2,74,30.34,10.0,North,3.5,-,N/A,,Partly Cloudy,350,2012-12-26 14:31:00
9:53 AM,19.9,12.9,74,30.37,10.0,North,5.8,-,N/A,,Partly Cloudy,350,2012-12-26 14:53:00
10:53 AM,21.9,15.1,75,30.34,10.0,NNW,5.8,-,N/A,,Scattered Clouds,330,2012-12-26 15:53:00
11:53 AM,23.0,16.0,74,30.30,10.0,NNW,9.2,-,N/A,,Clear,330,2012-12-26 16:53:00
12:53 PM,24.1,15.1,69,30.27,10.0,ENE,4.6,-,N/A,,Clear,70,2012-12-26 17:53:00
1:53 PM,25.0,15.1,66,30.24,10.0,NE,5.8,-,N/A,,Clear,50,2012-12-26 18:53:00
2:53 PM,25.0,15.1,66,30.23,10.0,ENE,6.9,-,N/A,,Clear,70,2012-12-26 19:53:00
3:53 PM,23.0,16.0,74,30.19,10.0,ENE,6.9,-,N/A,,Clear,70,2012-12-26 20:53:00
4:53 PM,24.1,16.0,71,30.18,10.0,ENE,3.5,-,N/A,,Clear,60,2012-12-26 21:53:00
5:53 PM,24.8,15.8,69,30.12,10.0,NE,5.8,-,N/A,,Overcast,40,2012-12-26 22:53:00
6:53 PM,25.0,15.1,66,30.12,10.0,NNE,4.6,-,N/A,,Overcast,30,2012-12-26 23:53:00
7:53 PM,26.1,16.0,66,30.10,10.0,NNE,6.9,-,N/A,,Overcast,20,2012-12-27 00:53:00
8:53 PM,25.0,16.0,69,30.06,5.0,NE,6.9,-,0.00,Snow,Light Snow,40,2012-12-27 01:53:00
9:11 PM,24.8,17.6,74,30.02,1.8,NNE,8.1,-,0.00,Snow,Light Snow,30,2012-12-27 02:11:00
9:23 PM,24.8,19.4,80,30.01,0.5,NNE,9.2,-,0.00,Snow,Snow,20,2012-12-27 02:23:00
9:33 PM,24.8,19.4,80,30.00,0.5,North,8.1,-,0.01,Fog-Snow,Snow,10,2012-12-27 02:33:00
9:53 PM,24.1,21.9,91,30.03,0.8,North,6.9,-,0.02,Snow,Light Snow,360,2012-12-27 02:53:00
10:53 PM,25.0,23.0,92,29.96,0.5,North,11.5,-,0.04,Fog-Snow,Snow,10,2012-12-27 03:53:00
11:40 PM,26.6,24.8,93,29.89,1.0,NNE,13.8,-,0.02,Snow,Light Snow,20,2012-12-27 04:40:00
11:49 PM,26.6,24.8,93,29.88,2.0,NNE,12.7,-,0.02,Snow,Light Snow,20,2012-12-27 04:49:00
11:53 PM,27.0,24.1,89,29.91,2.0,NNE,15.0,-,0.02,Snow,Light Snow,20,2012-12-27 04:53:00